Camarillo, CA

6:17 AM PDT on September 26, 2017 (GMT -0700)
Camarillo

Weather History for KCMA - April, 2013

Change the Weather History Date:

Friday, April 12, 2013

  Actual Average Record
Temperature  
Mean Temperature 61 °F 58 °F  
Max Temperature 68 °F 68 °F 94 °F (2008)
Min Temperature 53 °F 48 °F 37 °F (1967)
Degree Days  
Heating Degree Days 4 7  
Month to date heating degree days 34 89  
Since 1 July heating degree days 1376 1702  
Cooling Degree Days 0 0  
Month to date cooling degree days 0 0  
Year to date cooling degree days 24 13  
Growing Degree Days 10 (Base 50)    
Moisture  
Dew Point 50 °F    
Average Humidity 72    
Maximum Humidity 86    
Minimum Humidity 58    
Precipitation  
Precipitation 0.00 in 0.02 in 0.91 in (1982)
Month to date precipitation 0.00 0.24  
Year to date precipitation 2.07 10.07  
Since 1 July precipitation 4.78  
Sea Level Pressure  
Sea Level Pressure 29.86 in    
Wind  
Wind Speed 5 mph (WSW)    
Max Wind Speed 13 mph    
Max Gust Speed 18 mph    
Visibility 7 miles    
Events      
T = Trace of Precipitation, MM = Missing Value Source: NWS Daily Summary

Daily Weather History Graph

Daily Weather History Graph

Search for Another Location

Airport or City:

Trip Planner

Search our weather history database for the weather conditions in past years. The results will help you decide how hot, cold, wet, or windy it might be!

Date:

Astronomy

Apr. 12, 2013 Rise Set
Actual Time 6:28 AM PDT 7:25 PM PDT
Civil Twilight 6:02 AM PDT 7:51 PM PDT
Nautical Twilight 5:32 AM PDT 8:22 PM PDT
Astronomical Twilight 5:01 AM PDT 8:53 PM PDT
Moon 7:47 AM PDT (4/12) 9:54 PM PDT (4/12)
Length of Visible Light 13h 48m
Length of Day
12h 57m
Waxing Crescent, 6% of the Moon is Illuminated
Apr 12
Waxing Crescent
Apr 18
First Quarter
Apr 25
Full
May 2
Last Quarter
May 9
New

Hourly Weather History & Observations

Time (PDT) Temp. Dew Point Humidity Pressure Visibility Wind Dir Wind Speed Gust Speed Precip Events Conditions
12:55 AM 55.9 °F 48.9 °F 77% 29.84 in 7.0 mi NW 4.6 mph - N/A   Clear
2:55 AM 54.0 °F 46.9 °F 77% 29.83 in 7.0 mi Calm Calm - N/A   Clear
3:37 AM 53.6 °F 46.4 °F 77% 29.82 in 7.0 mi Calm Calm - N/A   Scattered Clouds
3:55 AM 55.0 °F 48.0 °F 77% 29.83 in 7.0 mi ESE 3.5 mph - N/A   Scattered Clouds
4:14 AM 53.6 °F 48.2 °F 82% 29.81 in 7.0 mi Calm Calm - N/A   Mostly Cloudy
4:55 AM 55.0 °F 48.0 °F 77% 29.83 in 8.0 mi ENE 3.5 mph - N/A   Overcast
5:55 AM 57.0 °F 50.0 °F 77% 29.85 in 7.0 mi Calm Calm - N/A   Overcast
6:55 AM 57.0 °F 50.0 °F 77% 29.86 in 5.0 mi Calm Calm - N/A   Haze
7:55 AM 57.9 °F 51.1 °F 78% 29.87 in 5.0 mi ENE 5.8 mph - N/A   Haze
8:55 AM 61.0 °F 51.1 °F 70% 29.88 in 6.0 mi Calm Calm - N/A   Haze
9:55 AM 63.0 °F 51.1 °F 65% 29.89 in 7.0 mi WNW 5.8 mph - N/A   Mostly Cloudy
10:36 AM 62.6 °F 51.8 °F 68% 29.87 in 6.0 mi West 5.8 mph - N/A   Haze
10:55 AM 64.9 °F 51.1 °F 61% 29.90 in 7.0 mi West 5.8 mph - N/A   Mostly Cloudy
11:38 AM 64.4 °F 51.8 °F 64% 29.87 in 7.0 mi WSW 8.1 mph - N/A   Scattered Clouds
11:55 AM 66.9 °F 51.1 °F 57% 29.89 in 8.0 mi West 9.2 mph - N/A   Clear
12:55 PM 66.9 °F 51.1 °F 57% 29.88 in 8.0 mi SW 11.5 mph - N/A   Clear
1:55 PM 66.9 °F 51.1 °F 57% 29.86 in 8.0 mi SSW 10.4 mph - N/A   Clear
2:55 PM 66.9 °F 52.0 °F 59% 29.85 in 9.0 mi SW 10.4 mph 18.4 mph N/A   Clear
3:55 PM 66.0 °F 51.1 °F 59% 29.84 in 9.0 mi WSW 10.4 mph - N/A   Clear
4:55 PM 64.9 °F 51.1 °F 61% 29.83 in 8.0 mi WSW 9.2 mph - N/A   Clear
5:55 PM 63.0 °F 51.1 °F 65% 29.83 in 8.0 mi West 6.9 mph - N/A   Clear
6:55 PM 61.0 °F 51.1 °F 70% 29.83 in 7.0 mi West 5.8 mph - N/A   Clear
7:55 PM 57.9 °F 50.0 °F 75% 29.84 in 8.0 mi WSW 6.9 mph - N/A   Clear
8:55 PM 57.0 °F 50.0 °F 77% 29.86 in 7.0 mi West 5.8 mph - N/A   Partly Cloudy
9:13 PM 55.4 °F 50.0 °F 82% 29.85 in 6.0 mi WSW 3.5 mph - N/A   Haze
9:55 PM 55.9 °F 50.0 °F 80% 29.88 in 6.0 mi Calm Calm - N/A   Haze
10:43 PM 55.4 °F 51.8 °F 88% 29.86 in 5.0 mi Calm Calm - N/A   Haze
10:55 PM 55.9 °F 51.1 °F 84% 29.89 in 5.0 mi Calm Calm - N/A   Haze
11:55 PM 55.9 °F 51.1 °F 84% 29.91 in 5.0 mi Calm Calm - N/A   Haze